Regional Weather Roundup
Issued by NWS

Home | Current Version | Previous Version | Text Only | Print | Product List | Glossary Off
Versions: 1 2 3 4 5 6 7 8 9 10 11 12 13 14 15 16 17 18 19 20 21 22 23 24 25 26 27

000
ASUS45 KCYS 111010
RWRWY

WYOMING REGIONAL WEATHER ROUNDUP
NATIONAL WEATHER SERVICE CHEYENNE WY
300 AM MST MON DEC 11 2017

NOTE:  "FAIR" INDICATES FEW OR NO CLOUDS BELOW 12,000 FEET
WITH NO SIGNIFICANT WEATHER AND/OR OBSTRUCTIONS TO VISIBILITY.

WYZ001-111100-
YELLOWSTONE NATIONAL PARK

CITY           SKY/WX    TMP DP  RH WIND       PRES   REMARKS
LK YELLOWSTONE   N/A      4   1  88 CALM      30.59R
W YELLOWSTONE  NOT AVBL

$$
WYZ002>013-054>058-071-098>099-111100-
NORTHERN WYOMING

CITY           SKY/WX    TMP DP  RH WIND       PRES   REMARKS
JACKSON        FAIR       8   5  87 N7        30.60F WCI  -3
CODY           FAIR      35   7  31 E5        30.40R WCI  31
GREYBULL       FAIR      13   9  84 CALM      30.41S
WORLAND        FAIR      14  11  87 S6        30.40R WCI   5
SHERIDAN       FAIR      36  15  42 NW13      30.35R WCI  27
BUFFALO        FAIR      41   9  26 NW10      30.33S
GILLETTE       FAIR      35  15  44 W13       30.30R WCI  26
HULETT         FAIR      41  19  42 NW10G18   30.28S
NEWCASTLE      FAIR      37  14  38 NW17      30.24S WCI  28

$$
WYZ014>020-022>026-101>103-111100-
CENTRAL WYOMING

CITY           SKY/WX    TMP DP  RH WIND       PRES   REMARKS
BIG PINEY      FAIR      19   1  45 W5        30.50S WCI  12
PINEDALE       FAIR      27   3  36 NW14      30.49S WCI  15
DUBOIS         FAIR      37   9  30 W20G30    30.46S WCI  27
LANDER         FAIR      23  14  68 N3        30.39S
RIVERTON       FAIR      19  13  77 CALM      30.40F
CASPER         FAIR      34  13  41 SW20      30.36F WCI  23
DOUGLAS        FAIR      24  16  71 NW3       30.34S

$$
WYZ021-027>030-104>119-111100-
SOUTHERN WYOMING

CITY           SKY/WX    TMP DP  RH WIND       PRES   REMARKS
EVANSTON       FAIR      26   4  38 CALM      30.55S
FORT BRIDGER   FAIR      35   1  23 W12       30.55S WCI  26
ROCK SPRINGS   FAIR      28   5  37 SW14      30.50S WCI  17
DIXON          FAIR       7   2  80 CALM      30.56S
RAWLINS        FAIR      25   8  48 VRB3      30.45S
SARATOGA       FAIR      10   5  79 CALM      30.47F
LARAMIE        FAIR      22   2  42 SW10      30.39F WCI  11
CHEYENNE       FAIR      43  -1  16 NW18      30.30F
TORRINGTON     FAIR      34  12  40 NW7       30.27F WCI  28
PINE BLUFFS    FAIR      34   1  25 MISG      30.30F

$$




USA.gov is the U.S. government's official web portal to all federal, state and local government web resources and services.